Cosmos 2297 - Orbit

View from above orbital plane
View from above orbital plane
View from above satellite
View from above satellite

Ground track
Ground track

The orbit data is extracted from the following two-line orbital elements,

1 23404U 94077A   13167.79449318 -.00000220  00000-0 -91934-4 0  5131
2 23404 071.0162 111.8492 0016237 218.2978 172.5777 14.13336697957576
Epoch (UTC): 16 June 2013 19:04:04
Eccentricity: 0.0016237
inclination: 71.0162°
perigee height: 836 km
apogee height: 860 km
right ascension of ascending node: 111.8492°
argument of perigee: 218.2978°
revolutions per day: 14.13336697
mean anomaly at epoch: 172.5777°
orbit number at epoch: 95757

The dashed part of the orbit path shows where the satellite is in the earth's shadow,  

Developed and maintained by Chris Peat, Heavens-Above GmbH. Please read the updated FAQ before sending e-mail. Imprint. DLR